Regional Weather Roundup
Issued by NWS Sterling, VA

Home | Current Version | Previous Version | Graphics & Text | Print | Product List | Glossary On
Versions: 1 2 3 4 5 6 7 8 9 10 11 12 13 14 15 16 17 18 19 20 21 22 23 24 25 26 27 28 29 30 31 32 33 34 35 36 37 38 39 40 41 42 43 44 45 46 47 48 49 50
000
ASUS41 KLWX 201910
RWRLWX

REGIONAL WEATHER ROUNDUP
NATIONAL WEATHER SERVICE BALTIMORE MD/WASHINGTON DC
200 PM EST TUE FEB 20 2018

Note: "FAIR" indicates few or no clouds below 12,000 feet
with no significant weather and/or obstructions to visibility.
 TC=TEMPERATURE CELSIUS

 * =Non NWS site. Station does not report precipitation (e.g. rain,
    snow, etc.), thunder, or fog.

DCZ001-MDZ009-015-VAZ040>042-051-053>054-202000-
WASHINGTON METRO

CITY           SKY/WX    TMP DP  RH WIND       PRES   REMARKS
WASHINGTON NAT FAIR      73  58  59 S16G23    30.29F
DULLES         FAIR      77  58  51 S14G24    30.27F
ANDREWS AFB    FAIR      75  56  51 S22G28    30.29F
FT BELVOIR     FAIR      75  58  53 S14       30.29F
COLLEGE PARK*  FAIR      74  57  55 S12G18    30.28F
LEESBURG*      FAIR      77  57  50 S14G20    30.28F
MANASSAS*      FAIR      77  58  51 SW14G24   30.29F
GAITHERSBURG*  FAIR      77  56  48 SW15      30.28F

$$

MDZ006>007-011-014-202000-
BALTIMORE METRO

CITY           SKY/WX    TMP DP  RH WIND       PRES   REMARKS
BWI AIRPORT    PTSUNNY   76  58  53 S8        30.27F
MD SCIENCE CTR   N/A     76  57  51 MISG      30.29F
MARTIN STATE   MOSUNNY   63  59  88 SE8       30.31F
ANNAPOLIS      FAIR      51  49  92 SE15      30.29F
FORT MEADE*    FAIR      75  55  50 SW14G21   30.30F

$$

MDZ012-015-019>023-202000-
MARYLAND EASTERN SHORE

CITY           SKY/WX    TMP DP  RH WIND       PRES   REMARKS
OCEAN CITY     CLOUDY    65  62  90 W12G23    30.39F
SALISBURY      PTSUNNY   67  61  81 S16       30.37F
BAY BRIDGE AP* FAIR      70  57  64 S13G18    30.30F
CAMBRIDGE*     SUNNY     68  61  77 S13G18    30.35F
EASTON*        SUNNY     72  57  60 SW14G21   30.37F

$$

MDZ017>025-202000-
SOUTHERN MARYLAND

CITY           SKY/WX    TMP DP  RH WIND       PRES   REMARKS
PATUXENT RIVER NOT AVBL
ST INIGOES     FAIR      69  50  50 S7        30.34F
LEONARDTOWN*   FAIR      70  59  68 S10G18    30.36F

$$

MDZ003>005-202000-
NORTH CENTRAL MARYLAND

CITY           SKY/WX    TMP DP  RH WIND       PRES   REMARKS
FREDERICK*     SUNNY     75  54  46 SW12      30.29F
HAGERSTOWN APT FAIR      76  55  48 S15       30.23F
WESTMINSTER*   FAIR      75  57  53 S13       30.27F

$$

MDZ501>502-202000-
WESTERN MARYLAND

CITY           SKY/WX    TMP DP  RH WIND       PRES   REMARKS
OAKLAND*       FAIR      70  48  46 SW10G16   30.28F
CUMBERLAND*    FAIR      82  54  36 S3        30.23F

$$

VAZ025>031-202000-
SHENANDOAH VALLEY

CITY           SKY/WX    TMP DP  RH WIND       PRES   REMARKS
WINCHESTER*    FAIR      77  54  44 S13G20    30.27F
FRONT ROYAL*   FAIR      79  52  38 SW13G20   30.25F
LURAY*         FAIR      77  52  41 S13G26    30.26F
NEW MARKET*    FAIR      76  52  43 SW14G24   30.25F
STAUNTON*      FAIR      74  53  46 SW16G24   30.32F
WAYNESBORO*    FAIR      74  55  51 S14G25    30.32F

$$

WVZ021-048>050-054>055-202000-
EASTERN WEST VIRGINIA PANHANDLE

CITY           SKY/WX    TMP DP  RH WIND       PRES   REMARKS
MARTINSBURG    FAIR      78  54  43 SW13G22   30.22F
PETERSBURG*    FAIR      78  54  42 S12G21    30.22F

$$

VAZ036>039-050-202000-
CENTRAL FOOTHILLS

CITY           SKY/WX    TMP DP  RH WIND       PRES   REMARKS
CHARLOTTESVILL FAIR      76  58  53 S18G25    30.31F
CULPEPER*      FAIR      77  56  47 S15G24    30.30F
ORANGE*        FAIR      73  57  56 S14       30.31F
GORDONSVILLE*  FAIR      73  59  61 SW17G25   30.31F
WARRENTON*     FAIR      77  54  44 S16G25    30.29F

$$

VAZ055>057-202000-
NORTH AND CENTRAL PIEDMONT

CITY           SKY/WX    TMP DP  RH WIND       PRES   REMARKS
FREDERICKSBRG* FAIR      76  58  53 SW22      30.31F
STAFFORD*      FAIR      76  57  50 SW15G23   30.35F

$$

NCZ024-NYZ072-PAZ021-071-VAZ022-071-202000-
OTHER REGIONAL OBSERVATIONS

CITY           SKY/WX    TMP DP  RH WIND       PRES   REMARKS
NEW YORK CITY  FAIR      63  53  70 VRB6      30.30F
PHILADELPHIA   FAIR      66  56  70 SW8       30.30F
PITTSBURGH     CLOUDY    75  52  44 SW20G29   30.16F
ROANOKE        FAIR      75  53  46 SW16G22   30.35F
RICHMOND       FAIR      76  61  59 S17G25    30.36F
RALEIGH        CLOUDY    64  61  90 SW3       30.43F

$$

ANZ530>537-202000-
MARINE OBSERVATIONS

STATION/POSITION TIME  TEMP    WIND        PRES
                       AIR SEA DIR/SP/G
                 (UTC) (F)     (DEG/KT/KT) (MB)
THOMAS PT LIGHT  1900   54 40  170/ 19/ 20   N/A
BALT KEY BRIDGE  1842          220/ 12/ 17 1025.1F
COVE POINT       1842   68     220/ 15/ 19 1028.2F
LEWISETTA        1842   66 46  220/ 11/ 15 1028.0F
SOLOMONS ISLAND  1842   65 42  220/ 15/ 20 1027.2F
PINEY POINT      1842          120/  8/  9   N/A

$$




USA.gov is the U.S. government's official web portal to all federal, state and local government web resources and services.